| time (UTC) | temp C | wind direction | speed KPH | gust KPH | rain 1hr cm | rain 24hr cm | rain mn cm | humidity % | barometer mb |
| 20260906162531 | 22 | 173 | 6.4 | 20.9 | 0.00 | 0.00 | 0.00 | 85 | 1018.8 |
| 20260906162030 | 22 | 140 | 9.7 | 20.9 | 0.00 | 0.00 | 0.00 | 85 | 1018.8 |
| 20260906161613 | 22 | 157 | 8.0 | 19.3 | 0.00 | 0.00 | 0.00 | 86 | 1018.8 |
| 20260906161029 | 22 | 110 | 6.4 | 17.7 | 0.00 | 0.00 | 0.00 | 86 | 1018.9 |
| 20260906160529 | 21 | 158 | 9.7 | 17.7 | 0.00 | 0.00 | 0.00 | 87 | 1018.9 |
| 20260906160050 | 21 | 140 | 9.7 | 16.1 | 0.00 | 0.00 | 0.00 | 87 | 1018.7 |
| 20260906155532 | 21 | 97 | 6.4 | 16.1 | 0.00 | 0.00 | 0.00 | 87 | 1018.7 |
| 20260906155029 | 21 | 123 | 6.4 | 20.9 | 0.00 | 0.00 | 0.00 | 88 | 1018.8 |
| 20260906154549 | 21 | 140 | 12.9 | 20.9 | 0.00 | 0.00 | 0.00 | 88 | 1018.8 |
| 20260906154032 | 21 | 108 | 8.0 | 22.5 | 0.00 | 0.00 | 0.00 | 88 | 1018.8 |
| 20260906153529 | 21 | 136 | 11.3 | 22.5 | 0.00 | 0.00 | 0.00 | 89 | 1018.8 |
| 20260906153108 | 21 | 123 | 9.7 | 19.3 | 0.00 | 0.00 | 0.00 | 89 | 1018.8 |
| 20260906152533 | 21 | 105 | 8.0 | 16.1 | 0.00 | 0.00 | 0.00 | 90 | 1019.1 |
| 20260906152029 | 21 | 138 | 6.4 | 17.7 | 0.00 | 0.00 | 0.00 | 90 | 1019.2 |
| 20260906151550 | 21 | 111 | 6.4 | 17.7 | 0.00 | 0.00 | 0.00 | 91 | 1019.1 |
| 20260906151029 | 21 | 112 | 8.0 | 16.1 | 0.00 | 0.00 | 0.00 | 91 | 1019.1 |
| 20260906150529 | 20 | 101 | 3.2 | 16.1 | 0.00 | 0.00 | 0.00 | 91 | 1019.2 |
| 20260906150101 | 20 | 109 | 8.0 | 16.1 | 0.00 | 0.00 | 0.00 | 91 | 1019.1 |
| 20260906145530 | 20 | 126 | 4.8 | 12.9 | 0.00 | 0.00 | 0.00 | 92 | 1018.9 |
| 20260906145029 | 20 | 127 | 8.0 | 12.9 | 0.00 | 0.00 | 0.00 | 92 | 1019.0 |
| 20260906144551 | 20 | 123 | 4.8 | 14.5 | 0.00 | 0.00 | 0.00 | 92 | 1018.9 |
| 20260906144029 | 20 | 145 | 6.4 | 14.5 | 0.00 | 0.00 | 0.00 | 93 | 1018.9 |
| 20260906143530 | 20 | 142 | 4.8 | 16.1 | 0.00 | 0.00 | 0.00 | 93 | 1018.8 |
| 20260906143049 | 20 | 129 | 6.4 | 16.1 | 0.00 | 0.00 | 0.00 | 93 | 1018.9 |
| 20260906142532 | 20 | 119 | 8.0 | 16.1 | 0.00 | 0.00 | 0.00 | 93 | 1018.9 |
| 20260906142032 | 20 | 130 | 6.4 | 16.1 | 0.00 | 0.00 | 0.00 | 93 | 1019.1 |
| 20260906141600 | 20 | 132 | 6.4 | 16.1 | 0.00 | 0.00 | 0.00 | 94 | 1019.2 |
| 20260906141032 | 20 | 131 | 4.8 | 19.3 | 0.00 | 0.00 | 0.00 | 94 | 1019.1 |
| 20260906140529 | 20 | 146 | 9.7 | 19.3 | 0.00 | 0.00 | 0.00 | 94 | 1019.0 |
| 20260906140053 | 20 | 124 | 6.4 | 19.3 | 0.00 | 0.00 | 0.00 | 94 | 1018.9 |
| 20260906135531 | 20 | 150 | 6.4 | 19.3 | 0.00 | 0.00 | 0.00 | 94 | 1018.8 |
| 20260906135030 | 19 | 119 | 9.7 | 22.5 | 0.00 | 0.00 | 0.00 | 94 | 1018.8 |
| 20260906134550 | 19 | 142 | 11.3 | 22.5 | 0.00 | 0.00 | 0.00 | 94 | 1018.7 |
| 20260906134031 | 19 | 121 | 11.3 | 20.9 | 0.00 | 0.00 | 0.00 | 94 | 1018.7 |
| 20260906133531 | 19 | 126 | 9.7 | 19.3 | 0.00 | 0.00 | 0.00 | 94 | 1018.7 |
| 20260906133057 | 19 | 117 | 8.0 | 17.7 | 0.00 | 0.00 | 0.00 | 94 | 1018.6 |
| 20260906132531 | 19 | 118 | 9.7 | 17.7 | 0.00 | 0.00 | 0.00 | 94 | 1018.5 |
| 20260906132030 | 19 | 107 | 8.0 | 17.7 | 0.00 | 0.00 | 0.00 | 94 | 1018.4 |
| 20260906131600 | 19 | 134 | 9.7 | 17.7 | 0.00 | 0.00 | 0.00 | 94 | 1018.3 |
| 20260906131031 | 19 | 105 | 9.7 | 14.5 | 0.00 | 0.00 | 0.00 | 94 | 1018.4 |
| 20260906130530 | 19 | 121 | 6.4 | 16.1 | 0.00 | 0.00 | 0.00 | 95 | 1018.3 |
| 20260906130054 | 19 | 101 | 8.0 | 16.1 | 0.00 | 0.00 | 0.00 | 95 | 1018.1 |
| 20260906125530 | 19 | 82 | 6.4 | 16.1 | 0.00 | 0.00 | 0.00 | 95 | 1018.3 |
| 20260906125029 | 19 | 107 | 6.4 | 14.5 | 0.00 | 0.00 | 0.00 | 95 | 1018.2 |
| 20260906124550 | 19 | 113 | 8.0 | 14.5 | 0.00 | 0.00 | 0.00 | 95 | 1018.2 |
| 20260906124031 | 19 | 122 | 8.0 | 14.5 | 0.00 | 0.00 | 0.00 | 95 | 1018.1 |
| 20260906123530 | 19 | 111 | 6.4 | 12.9 | 0.00 | 0.00 | 0.00 | 95 | 1018.2 |
| 20260906123055 | 18 | 99 | 4.8 | 11.3 | 0.00 | 0.00 | 0.00 | 95 | 1018.2 |
| 20260906122532 | 18 | 91 | 3.2 | 6.4 | 0.00 | 0.00 | 0.00 | 95 | 1018.2 |
| 20260906122031 | 18 | 119 | 3.2 | 6.4 | 0.00 | 0.00 | 0.00 | 95 | 1018.2 |
| 20260906121545 | 18 | 120 | 3.2 | 6.4 | 0.00 | 0.00 | 0.00 | 95 | 1018.1 |
| 20260906121031 | 18 | 123 | 1.6 | 4.8 | 0.00 | 0.00 | 0.00 | 95 | 1018.0 |
| 20260906120533 | 18 | 123 | 1.6 | 4.8 | 0.00 | 0.00 | 0.00 | 95 | 1018.1 |
| 20260906120056 | 18 | 156 | 1.6 | 4.8 | 0.00 | 0.00 | 0.00 | 95 | 1018.0 |
| 20260906115530 | 18 | 120 | 1.6 | 4.8 | 0.00 | 0.00 | 0.00 | 94 | 1018.1 |
| 20260906115029 | 18 | 120 | 1.6 | 4.8 | 0.00 | 0.00 | 0.00 | 94 | 1017.9 |
| 20260906114553 | 18 | 120 | 1.6 | 6.4 | 0.00 | 0.00 | 0.00 | 94 | 1017.8 |
| 20260906114032 | 18 | 127 | 3.2 | 6.4 | 0.00 | 0.00 | 0.00 | 94 | 1017.8 |
| 20260906113532 | 18 | 114 | 3.2 | 6.4 | 0.00 | 0.00 | 0.00 | 94 | 1017.8 |
| 20260906113059 | 18 | 110 | 3.2 | 6.4 | 0.00 | 0.00 | 0.00 | 94 | 1017.8 |
| 20260906112535 | 18 | 109 | 3.2 | 6.4 | 0.00 | 0.00 | 0.00 | 94 | 1017.8 |
| 20260906112034 | 18 | 126 | 1.6 | 6.4 | 0.00 | 0.00 | 0.00 | 94 | 1017.8 |
| 20260906111556 | 18 | 128 | 3.2 | 6.4 | 0.00 | 0.00 | 0.00 | 94 | 1017.7 |
| 20260906111032 | 18 | 111 | 3.2 | 6.4 | 0.00 | 0.00 | 0.00 | 94 | 1017.8 |
| 20260906110532 | 18 | 128 | 1.6 | 4.8 | 0.00 | 0.00 | 0.00 | 94 | 1017.7 |
| 20260906110049 | 18 | 128 | 1.6 | 4.8 | 0.00 | 0.00 | 0.00 | 94 | 1017.6 |
| 20260906105532 | 18 | 121 | 1.6 | 6.4 | 0.00 | 0.00 | 0.00 | 94 | 1017.6 |
| 20260906105033 | 18 | 128 | 3.2 | 6.4 | 0.00 | 0.00 | 0.00 | 94 | 1017.7 |
| 20260906104549 | 18 | 107 | 3.2 | 6.4 | 0.00 | 0.00 | 0.00 | 94 | 1017.7 |
| 20260906104033 | 18 | 101 | 1.6 | 4.8 | 0.00 | 0.00 | 0.00 | 94 | 1017.5 |
| 20260906103531 | 18 | 117 | 1.6 | 4.8 | 0.00 | 0.00 | 0.00 | 94 | 1017.6 |
| 20260906103052 | 18 | 117 | 1.6 | 4.8 | 0.00 | 0.00 | 0.00 | 93 | 1017.5 |
| 20260906102534 | 18 | 117 | 1.6 | 4.8 | 0.00 | 0.00 | 0.00 | 93 | 1017.5 |
| 20260906102032 | 18 | 117 | 1.6 | 4.8 | 0.00 | 0.00 | 0.00 | 93 | 1017.5 |
| 20260906101549 | 18 | 117 | 1.6 | 4.8 | 0.00 | 0.00 | 0.00 | 93 | 1017.4 |
| 20260906101031 | 19 | 117 | 1.6 | 6.4 | 0.00 | 0.00 | 0.00 | 93 | 1017.5 |
| 20260906100533 | 19 | 113 | 3.2 | 6.4 | 0.00 | 0.00 | 0.00 | 93 | 1017.3 |
| 20260906100048 | 19 | 99 | 3.2 | 6.4 | 0.00 | 0.00 | 0.00 | 93 | 1017.3 |
| 20260906095533 | 19 | 105 | 1.6 | 8.0 | 0.00 | 0.00 | 0.00 | 93 | 1017.2 |
| 20260906095033 | 19 | 155 | 3.2 | 8.0 | 0.00 | 0.00 | 0.00 | 93 | 1017.2 |
| 20260906094604 | 19 | 113 | 3.2 | 9.7 | 0.00 | 0.00 | 0.00 | 92 | 1017.0 |
| 20260906094032 | 19 | 132 | 3.2 | 9.7 | 0.00 | 0.00 | 0.00 | 92 | 1016.9 |
| 20260906093533 | 19 | 101 | 3.2 | 11.3 | 0.00 | 0.00 | 0.00 | 92 | 1016.7 |
| 20260906093053 | 19 | 95 | 3.2 | 11.3 | 0.00 | 0.00 | 0.00 | 92 | 1016.7 |
| 20260906092535 | 19 | 109 | 3.2 | 9.7 | 0.00 | 0.00 | 0.00 | 92 | 1016.7 |
| 20260906092032 | 20 | 95 | 4.8 | 9.7 | 0.00 | 0.00 | 0.00 | 92 | 1016.8 |
| 20260906091551 | 20 | 82 | 3.2 | 6.4 | 0.00 | 0.00 | 0.00 | 92 | 1016.6 |
| 20260906091033 | 20 | 103 | 3.2 | 6.4 | 0.00 | 0.00 | 0.00 | 92 | 1016.8 |
| 20260906090533 | 20 | 112 | 1.6 | 9.7 | 0.00 | 0.00 | 0.00 | 92 | 1016.9 |
| 20260906090054 | 20 | 86 | 1.6 | 11.3 | 0.00 | 0.00 | 0.00 | 92 | 1016.9 |
| 20260906085535 | 20 | 121 | 4.8 | 12.9 | 0.00 | 0.00 | 0.00 | 92 | 1016.7 |
| 20260906085030 | 20 | 100 | 3.2 | 12.9 | 0.00 | 0.00 | 0.00 | 92 | 1016.6 |
| 20260906084547 | 20 | 113 | 3.2 | 12.9 | 0.00 | 0.00 | 0.00 | 92 | 1016.6 |
| 20260906084035 | 20 | 115 | 6.4 | 12.9 | 0.00 | 0.00 | 0.00 | 92 | 1016.6 |
| 20260906083529 | 20 | 101 | 4.8 | 11.3 | 0.00 | 0.00 | 0.00 | 91 | 1016.7 |
| 20260906083052 | 20 | 101 | 4.8 | 11.3 | 0.00 | 0.00 | 0.00 | 92 | 1016.6 |
| 20260906082529 | 20 | 109 | 4.8 | 12.9 | 0.00 | 0.00 | 0.00 | 92 | 1016.5 |
| 20260906082030 | 20 | 126 | 4.8 | 12.9 | 0.00 | 0.00 | 0.00 | 91 | 1016.6 |
| 20260906081550 | 20 | 105 | 3.2 | 11.3 | 0.00 | 0.00 | 0.00 | 91 | 1016.5 |
| 20260906081030 | 20 | 97 | 4.8 | 11.3 | 0.00 | 0.00 | 0.00 | 91 | 1016.5 |
| 20260906080530 | 20 | 113 | 3.2 | 9.7 | 0.00 | 0.00 | 0.00 | 91 | 1016.5 |
| 20260906080052 | 20 | 91 | 3.2 | 9.7 | 0.00 | 0.00 | 0.00 | 91 | 1016.5 |
| 20260906075530 | 20 | 96 | 3.2 | 12.9 | 0.00 | 0.00 | 0.00 | 91 | 1016.6 |
| 20260906075029 | 20 | 113 | 4.8 | 12.9 | 0.00 | 0.00 | 0.00 | 91 | 1016.6 |
| 20260906074548 | 20 | 113 | 6.4 | 11.3 | 0.00 | 0.00 | 0.00 | 91 | 1016.7 |
| 20260906074031 | 20 | 100 | 3.2 | 11.3 | 0.00 | 0.00 | 0.00 | 91 | 1016.7 |
| 20260906073531 | 20 | 109 | 4.8 | 11.3 | 0.00 | 0.00 | 0.00 | 91 | 1016.7 |
| 20260906073043 | 20 | 90 | 3.2 | 4.8 | 0.00 | 0.00 | 0.00 | 91 | 1016.8 |
| 20260906072533 | 20 | 98 | 1.6 | 4.8 | 0.00 | 0.00 | 0.00 | 91 | 1016.9 |
| 20260906072030 | 20 | 0 | 0.0 | 6.4 | 0.00 | 0.00 | 0.00 | 91 | 1017.0 |
| 20260906071552 | 20 | 102 | 3.2 | 6.4 | 0.00 | 0.00 | 0.00 | 91 | 1017.0 |
| 20260906071031 | 20 | 90 | 1.6 | 6.4 | 0.00 | 0.00 | 0.00 | 91 | 1017.0 |
| 20260906070533 | 21 | 90 | 0.0 | 4.8 | 0.00 | 0.00 | 0.00 | 90 | 1016.9 |
| 20260906070047 | 21 | 76 | 1.6 | 6.4 | 0.00 | 0.00 | 0.00 | 90 | 1017.0 |
| 20260906065531 | 21 | 92 | 3.2 | 6.4 | 0.00 | 0.00 | 0.00 | 90 | 1016.9 |
| 20260906065031 | 21 | 110 | 3.2 | 9.7 | 0.00 | 0.00 | 0.00 | 90 | 1017.0 |
| 20260906064552 | 21 | 110 | 3.2 | 9.7 | 0.00 | 0.00 | 0.00 | 90 | 1017.0 |
| 20260906064031 | 21 | 58 | 3.2 | 6.4 | 0.00 | 0.00 | 0.00 | 90 | 1017.1 |
| 20260906063529 | 21 | 103 | 3.2 | 9.7 | 0.00 | 0.00 | 0.00 | 90 | 1016.9 |
| 20260906063051 | 21 | 95 | 3.2 | 9.7 | 0.00 | 0.00 | 0.00 | 90 | 1017.1 |
| 20260906062534 | 21 | 115 | 4.8 | 9.7 | 0.00 | 0.00 | 0.00 | 90 | 1017.1 |
| 20260906062031 | 21 | 128 | 3.2 | 9.7 | 0.00 | 0.00 | 0.00 | 90 | 1017.1 |
| 20260906061550 | 21 | 122 | 3.2 | 9.7 | 0.00 | 0.00 | 0.00 | 89 | 1017.1 |
| 20260906061031 | 21 | 120 | 3.2 | 6.4 | 0.00 | 0.00 | 0.00 | 89 | 1017.0 |
| 20260906060531 | 21 | 125 | 1.6 | 6.4 | 0.00 | 0.00 | 0.00 | 89 | 1017.1 |
| 20260906060059 | 21 | 133 | 3.2 | 8.0 | 0.00 | 0.00 | 0.00 | 89 | 1017.1 |
| 20260906055528 | 21 | 136 | 3.2 | 8.0 | 0.00 | 0.00 | 0.00 | 89 | 1017.1 |
| 20260906055031 | 21 | 113 | 3.2 | 9.7 | 0.00 | 0.00 | 0.00 | 89 | 1017.0 |
| 20260906054606 | 21 | 128 | 1.6 | 9.7 | 0.00 | 0.00 | 0.00 | 89 | 1017.0 |
| 20260906054031 | 21 | 148 | 3.2 | 6.4 | 0.00 | 0.00 | 0.00 | 88 | 1016.9 |
| 20260906053532 | 21 | 107 | 3.2 | 11.3 | 0.00 | 0.00 | 0.00 | 88 | 1017.1 |
| 20260906053048 | 21 | 113 | 4.8 | 11.3 | 0.00 | 0.00 | 0.00 | 88 | 1017.1 |
| 20260906052528 | 21 | 108 | 4.8 | 11.3 | 0.00 | 0.00 | 0.00 | 88 | 1017.1 |
| 20260906052032 | 21 | 94 | 6.4 | 11.3 | 0.00 | 0.00 | 0.00 | 88 | 1017.1 |
| 20260906051543 | 21 | 92 | 3.2 | 9.7 | 0.00 | 0.00 | 0.00 | 88 | 1017.2 |
| 20260906051031 | 21 | 98 | 3.2 | 11.3 | 0.00 | 0.00 | 0.00 | 88 | 1017.1 |
| 20260906050532 | 21 | 111 | 4.8 | 11.3 | 0.00 | 0.00 | 0.00 | 88 | 1017.2 |
| 20260906050053 | 21 | 109 | 3.2 | 6.4 | 0.00 | 0.00 | 0.00 | 88 | 1017.2 |
| 20260906045529 | 21 | 105 | 1.6 | 6.4 | 0.00 | 0.00 | 0.00 | 88 | 1017.2 |
| 20260906045031 | 21 | 114 | 1.6 | 6.4 | 0.00 | 0.00 | 0.00 | 88 | 1017.2 |
| 20260906044548 | 21 | 90 | 3.2 | 6.4 | 0.00 | 0.00 | 0.00 | 87 | 1017.3 |
| 20260906044031 | 21 | 98 | 1.6 | 6.4 | 0.00 | 0.00 | 0.00 | 87 | 1017.3 |
| 20260906043532 | 22 | 96 | 1.6 | 4.8 | 0.00 | 0.00 | 0.00 | 87 | 1017.4 |
| 20260906043044 | 22 | 88 | 1.6 | 9.7 | 0.00 | 0.00 | 0.00 | 87 | 1017.4 |
| 20260906042528 | 22 | 103 | 1.6 | 9.7 | 0.00 | 0.00 | 0.00 | 87 | 1017.4 |
| 20260906042029 | 22 | 103 | 3.2 | 9.7 | 0.00 | 0.00 | 0.00 | 87 | 1017.3 |
| 20260906041550 | 22 | 90 | 1.6 | 11.3 | 0.00 | 0.00 | 0.00 | 87 | 1017.3 |
| 20260906041029 | 22 | 56 | 1.6 | 11.3 | 0.00 | 0.00 | 0.00 | 88 | 1017.3 |
| 20260906040535 | 22 | 82 | 1.6 | 6.4 | 0.00 | 0.00 | 0.00 | 89 | 1017.4 |
| 20260906040051 | 21 | 76 | 1.6 | 4.8 | 0.00 | 0.00 | 0.00 | 89 | 1017.4 |
| 20260906035529 | 21 | 63 | 1.6 | 4.8 | 0.00 | 0.00 | 0.00 | 89 | 1017.4 |
| 20260906035030 | 21 | 78 | 1.6 | 4.8 | 0.00 | 0.00 | 0.00 | 89 | 1017.4 |
| 20260906034559 | 21 | 90 | 0.0 | 3.2 | 0.00 | 0.00 | 0.00 | 89 | 1017.5 |
| 20260906034031 | 21 | 90 | 0.0 | 4.8 | 0.00 | 0.00 | 0.00 | 89 | 1017.4 |
| 20260906033532 | 21 | 0 | 0.0 | 4.8 | 0.00 | 0.00 | 0.00 | 89 | 1017.3 |
| 20260906033057 | 21 | 0 | 0.0 | 0.0 | 0.00 | 0.00 | 0.00 | 90 | 1017.4 |
| 20260906032529 | 21 | 0 | 0.0 | 0.0 | 0.00 | 0.00 | 0.00 | 89 | 1017.3 |
| 20260906032029 | 21 | 0 | 0.0 | 0.0 | 0.00 | 0.00 | 0.00 | 89 | 1017.2 |
| 20260906031551 | 21 | 0 | 0.0 | 0.0 | 0.00 | 0.00 | 0.00 | 89 | 1017.3 |
| 20260906031030 | 21 | 0 | 0.0 | 0.0 | 0.00 | 0.00 | 0.00 | 89 | 1017.4 |
| 20260906030530 | 21 | 0 | 0.0 | 0.0 | 0.00 | 0.00 | 0.00 | 89 | 1017.4 |
| 20260906030052 | 21 | 0 | 0.0 | 0.0 | 0.00 | 0.00 | 0.00 | 89 | 1017.5 |
| 20260906025529 | 21 | 0 | 0.0 | 3.2 | 0.00 | 0.00 | 0.00 | 88 | 1017.5 |
| 20260906025029 | 21 | 0 | 0.0 | 3.2 | 0.00 | 0.00 | 0.00 | 89 | 1017.5 |
| 20260906024552 | 21 | 163 | 0.0 | 3.2 | 0.00 | 0.00 | 0.00 | 89 | 1017.6 |
| 20260906024029 | 21 | 0 | 0.0 | 0.0 | 0.00 | 0.00 | 0.00 | 89 | 1017.5 |
| 20260906023529 | 21 | 0 | 0.0 | 0.0 | 0.00 | 0.00 | 0.00 | 89 | 1017.4 |
| 20260906023050 | 21 | 0 | 0.0 | 1.6 | 0.00 | 0.00 | 0.00 | 89 | 1017.2 |
| 20260906022529 | 21 | 0 | 0.0 | 1.6 | 0.00 | 0.00 | 0.00 | 89 | 1017.2 |
| 20260906022031 | 21 | 0 | 0.0 | 0.0 | 0.00 | 0.00 | 0.00 | 88 | 1017.1 |
| 20260906021557 | 21 | 0 | 0.0 | 1.6 | 0.00 | 0.00 | 0.00 | 88 | 1017.0 |
| 20260906021029 | 21 | 0 | 0.0 | 3.2 | 0.00 | 0.00 | 0.00 | 87 | 1017.0 |
| 20260906020530 | 21 | 0 | 0.0 | 3.2 | 0.00 | 0.00 | 0.00 | 87 | 1016.8 |
| 20260906020046 | 22 | 0 | 0.0 | 3.2 | 0.00 | 0.00 | 0.00 | 86 | 1016.6 |
| 20260906015529 | 22 | 163 | 0.0 | 3.2 | 0.00 | 0.00 | 0.00 | 85 | 1016.3 |
| 20260906015029 | 22 | 163 | 0.0 | 4.8 | 0.00 | 0.00 | 0.00 | 85 | 1016.3 |
| 20260906014553 | 22 | 163 | 0.0 | 4.8 | 0.00 | 0.00 | 0.00 | 85 | 1016.1 |
| 20260906014033 | 22 | 133 | 1.6 | 8.0 | 0.00 | 0.00 | 0.00 | 84 | 1015.9 |
| 20260906013529 | 22 | 121 | 0.0 | 8.0 | 0.00 | 0.00 | 0.00 | 83 | 1015.8 |
| 20260906013050 | 23 | 137 | 1.6 | 8.0 | 0.00 | 0.00 | 0.00 | 82 | 1015.7 |
| 20260906012530 | 23 | 134 | 1.6 | 8.0 | 0.00 | 0.00 | 0.00 | 82 | 1015.7 |
| 20260906012031 | 23 | 139 | 3.2 | 11.3 | 0.00 | 0.00 | 0.00 | 82 | 1015.6 |
| 20260906011549 | 23 | 113 | 4.8 | 11.3 | 0.00 | 0.00 | 0.00 | 81 | 1015.6 |
| 20260906011030 | 23 | 144 | 6.4 | 12.9 | 0.00 | 0.00 | 0.00 | 81 | 1015.6 |
| 20260906010531 | 23 | 117 | 4.8 | 12.9 | 0.00 | 0.00 | 0.00 | 80 | 1015.6 |
| 20260906010106 | 23 | 124 | 4.8 | 12.9 | 0.00 | 0.00 | 0.00 | 80 | 1015.5 |
| 20260906005529 | 23 | 109 | 6.4 | 17.7 | 0.00 | 0.00 | 0.00 | 80 | 1015.5 |
| 20260906005031 | 23 | 107 | 8.0 | 17.7 | 0.00 | 0.00 | 0.00 | 80 | 1015.5 |
| 20260906004609 | 24 | 85 | 4.8 | 14.5 | 0.00 | 0.00 | 0.00 | 79 | 1015.5 |
| 20260906004029 | 24 | 115 | 8.0 | 14.5 | 0.00 | 0.00 | 0.00 | 79 | 1015.5 |
| 20260906003531 | 24 | 113 | 8.0 | 14.5 | 0.00 | 0.00 | 0.00 | 79 | 1015.6 |
| 20260906003053 | 24 | 124 | 9.7 | 14.5 | 0.00 | 0.00 | 0.00 | 79 | 1015.5 |
| 20260906002532 | 25 | 138 | 4.8 | 17.7 | 0.00 | 0.00 | 0.00 | 78 | 1015.4 |
| 20260906002030 | 25 | 115 | 9.7 | 17.7 | 0.00 | 0.00 | 0.00 | 78 | 1015.3 |
| 20260906001601 | 25 | 167 | 9.7 | 17.7 | 0.00 | 0.00 | 0.00 | 78 | 1015.2 |
| 20260906001031 | 25 | 120 | 11.3 | 17.7 | 0.00 | 0.00 | 0.00 | 77 | 1015.1 |
| 20260906000532 | 25 | 111 | 9.7 | 17.7 | 0.00 | 0.00 | 0.00 | 77 | 1015.0 |
| 20260906000046 | 25 | 158 | 8.0 | 20.9 | 0.00 | 0.00 | 0.00 | 76 | 1015.1 |
| 20260905235529 | 25 | 109 | 11.3 | 20.9 | 0.00 | 0.00 | 0.00 | 75 | 1015.1 |
| 20260905235031 | 26 | 146 | 8.0 | 24.1 | 0.00 | 0.00 | 0.00 | 75 | 1015.2 |
| 20260905234554 | 26 | 162 | 11.3 | 24.1 | 0.00 | 0.00 | 0.00 | 74 | 1015.2 |
| 20260905234030 | 26 | 118 | 11.3 | 19.3 | 0.00 | 0.00 | 0.00 | 74 | 1015.3 |
| 20260905233532 | 26 | 127 | 4.8 | 20.9 | 0.00 | 0.00 | 0.00 | 73 | 1015.2 |
| 20260905233051 | 26 | 119 | 9.7 | 24.1 | 0.00 | 0.00 | 0.00 | 72 | 1015.2 |
| 20260905232530 | 26 | 101 | 9.7 | 24.1 | 0.00 | 0.00 | 0.00 | 72 | 1015.0 |
| 20260905232030 | 26 | 109 | 8.0 | 24.1 | 0.00 | 0.00 | 0.00 | 72 | 1015.0 |
| 20260905231550 | 26 | 85 | 12.9 | 24.1 | 0.00 | 0.00 | 0.00 | 71 | 1015.0 |
| 20260905231031 | 26 | 110 | 12.9 | 24.1 | 0.00 | 0.00 | 0.00 | 71 | 1014.9 |
| 20260905230530 | 26 | 123 | 9.7 | 24.1 | 0.00 | 0.00 | 0.00 | 71 | 1014.7 |
| 20260905230047 | 26 | 109 | 16.1 | 24.1 | 0.00 | 0.00 | 0.00 | 70 | 1014.6 |
| 20260905225535 | 26 | 100 | 11.3 | 20.9 | 0.00 | 0.00 | 0.00 | 70 | 1014.6 |
| 20260905225029 | 26 | 133 | 14.5 | 22.5 | 0.00 | 0.00 | 0.00 | 70 | 1014.6 |
| 20260905224552 | 26 | 105 | 9.7 | 22.5 | 0.00 | 0.00 | 0.00 | 70 | 1014.4 |
| 20260905224028 | 27 | 102 | 12.9 | 22.5 | 0.00 | 0.00 | 0.00 | 70 | 1014.3 |
| 20260905223529 | 27 | 88 | 12.9 | 22.5 | 0.00 | 0.00 | 0.00 | 70 | 1014.4 |
| 20260905223055 | 27 | 129 | 9.7 | 22.5 | 0.00 | 0.00 | 0.00 | 69 | 1014.3 |
| 20260905222530 | 27 | 109 | 6.4 | 16.1 | 0.00 | 0.00 | 0.00 | 70 | 1014.3 |
| 20260905222029 | 26 | 84 | 6.4 | 19.3 | 0.00 | 0.00 | 0.00 | 70 | 1014.5 |
| 20260905221552 | 26 | 81 | 8.0 | 19.3 | 0.00 | 0.00 | 0.00 | 70 | 1014.5 |
| 20260905221028 | 26 | 92 | 6.4 | 19.3 | 0.00 | 0.00 | 0.00 | 70 | 1014.6 |
| 20260905220532 | 26 | 118 | 11.3 | 19.3 | 0.00 | 0.00 | 0.00 | 70 | 1014.7 |
| 20260905220058 | 26 | 115 | 8.0 | 19.3 | 0.00 | 0.00 | 0.00 | 70 | 1014.9 |
| 20260905215529 | 26 | 115 | 6.4 | 19.3 | 0.00 | 0.00 | 0.00 | 70 | 1014.9 |
| 20260905215029 | 26 | 103 | 11.3 | 19.3 | 0.00 | 0.00 | 0.00 | 69 | 1014.8 |
| 20260905214553 | 26 | 102 | 8.0 | 17.7 | 0.00 | 0.00 | 0.00 | 70 | 1014.8 |
| 20260905214029 | 26 | 117 | 6.4 | 17.7 | 0.00 | 0.00 | 0.00 | 69 | 1014.9 |
| 20260905213529 | 26 | 101 | 6.4 | 17.7 | 0.00 | 0.00 | 0.00 | 69 | 1014.9 |
| 20260905213050 | 26 | 48 | 8.0 | 22.5 | 0.00 | 0.00 | 0.00 | 69 | 1014.6 |
| 20260905212533 | 26 | 73 | 8.0 | 22.5 | 0.00 | 0.00 | 0.00 | 71 | 1014.5 |
| 20260905212031 | 26 | 41 | 9.7 | 22.5 | 0.00 | 0.00 | 0.00 | 69 | 1014.5 |
| 20260905211553 | 26 | 36 | 8.0 | 24.1 | 0.00 | 0.00 | 0.00 | 70 | 1014.7 |
| 20260905211029 | 26 | 109 | 11.3 | 24.1 | 0.00 | 0.00 | 0.00 | 70 | 1014.8 |
| 20260905210529 | 27 | 134 | 14.5 | 27.4 | 0.00 | 0.00 | 0.00 | 69 | 1014.8 |
| 20260905205529 | 27 | 53 | 11.3 | 24.1 | 0.00 | 0.00 | 0.00 | 70 | 1014.8 |
| 20260905205030 | 27 | 68 | 9.7 | 20.9 | 0.00 | 0.00 | 0.00 | 69 | 1015.0 |
| 20260905204547 | 27 | 83 | 9.7 | 24.1 | 0.00 | 0.00 | 0.00 | 71 | 1015.2 |
| 20260905204031 | 27 | 85 | 9.7 | 24.1 | 0.00 | 0.00 | 0.00 | 71 | 1015.4 |
| 20260905203530 | 27 | 88 | 9.7 | 24.1 | 0.00 | 0.00 | 0.00 | 69 | 1015.3 |
| 20260905203042 | 27 | 94 | 8.0 | 20.9 | 0.00 | 0.00 | 0.00 | 71 | 1015.3 |
| 20260905202532 | 27 | 68 | 8.0 | 20.9 | 0.00 | 0.00 | 0.00 | 72 | 1015.3 |
| 20260905202031 | 27 | 67 | 8.0 | 20.9 | 0.00 | 0.00 | 0.00 | 71 | 1015.5 |
| 20260905201552 | 27 | 99 | 6.4 | 17.7 | 0.00 | 0.00 | 0.00 | 71 | 1015.7 |
| 20260905201029 | 27 | 131 | 4.8 | 17.7 | 0.00 | 0.00 | 0.00 | 71 | 1015.9 |
| 20260905200538 | 27 | 114 | 3.2 | 17.7 | 0.00 | 0.00 | 0.00 | 71 | 1015.8 |
| 20260905200112 | 27 | 352 | 4.8 | 17.7 | 0.00 | 0.00 | 0.00 | 69 | 1015.9 |
| 20260905195531 | 27 | 86 | 11.3 | 17.7 | 0.00 | 0.00 | 0.00 | 70 | 1015.9 |
| 20260905195035 | 27 | 92 | 6.4 | 14.5 | 0.00 | 0.00 | 0.00 | 72 | 1016.0 |
| 20260905194545 | 27 | 72 | 3.2 | 14.5 | 0.00 | 0.00 | 0.00 | 74 | 1016.1 |
| 20260905194033 | 27 | 84 | 4.8 | 14.5 | 0.00 | 0.00 | 0.00 | 73 | 1016.2 |
| 20260905193532 | 26 | 98 | 3.2 | 11.3 | 0.00 | 0.00 | 0.00 | 73 | 1016.3 |
| 20260905193050 | 26 | 133 | 1.6 | 11.3 | 0.00 | 0.00 | 0.00 | 73 | 1016.3 |
| 20260905192533 | 26 | 98 | 3.2 | 8.0 | 0.00 | 0.00 | 0.00 | 73 | 1016.3 |
| 20260905192033 | 26 | 53 | 1.6 | 8.0 | 0.00 | 0.00 | 0.00 | 73 | 1016.3 |
| 20260905191549 | 26 | 303 | 1.6 | 4.8 | 0.00 | 0.00 | 0.00 | 73 | 1016.5 |
| 20260905191034 | 26 | 0 | 0.0 | 6.4 | 0.00 | 0.00 | 0.00 | 74 | 1016.4 |
| 20260905190532 | 26 | 211 | 1.6 | 6.4 | 0.00 | 0.00 | 0.00 | 74 | 1016.5 |
| 20260905190048 | 26 | 0 | 1.6 | 6.4 | 0.00 | 0.00 | 0.00 | 74 | 1016.5 |
| 20260905185534 | 26 | 321 | 3.2 | 11.3 | 0.00 | 0.00 | 0.00 | 74 | 1016.5 |
| 20260905185031 | 26 | 120 | 4.8 | 11.3 | 0.00 | 0.00 | 0.00 | 74 | 1016.5 |
| 20260905184554 | 27 | 76 | 3.2 | 11.3 | 0.00 | 0.00 | 0.00 | 74 | 1016.4 |
| 20260905184037 | 27 | 109 | 4.8 | 11.3 | 0.00 | 0.00 | 0.00 | 74 | 1016.3 |
| 20260905183533 | 26 | 87 | 1.6 | 11.3 | 0.00 | 0.00 | 0.00 | 75 | 1016.5 |
| 20260905183052 | 26 | 131 | 1.6 | 11.3 | 0.00 | 0.00 | 0.00 | 77 | 1016.5 |
| 20260905182532 | 26 | 81 | 1.6 | 12.9 | 0.00 | 0.00 | 0.00 | 77 | 1016.6 |
| 20260905182035 | 26 | 90 | 6.4 | 17.7 | 0.00 | 0.00 | 0.00 | 76 | 1016.7 |
| 20260905181555 | 26 | 115 | 9.7 | 17.7 | 0.00 | 0.00 | 0.00 | 76 | 1016.7 |
| 20260905181032 | 25 | 196 | 4.8 | 16.1 | 0.00 | 0.00 | 0.00 | 78 | 1016.7 |
| 20260905180532 | 25 | 80 | 6.4 | 16.1 | 0.00 | 0.00 | 0.00 | 78 | 1016.7 |
| 20260905180049 | 26 | 90 | 6.4 | 16.1 | 0.00 | 0.00 | 0.00 | 78 | 1016.7 |
| 20260905175536 | 25 | 121 | 6.4 | 16.1 | 0.00 | 0.00 | 0.00 | 79 | 1016.7 |
| 20260905175033 | 25 | 110 | 4.8 | 16.1 | 0.00 | 0.00 | 0.00 | 79 | 1016.9 |
| 20260905174544 | 25 | 129 | 6.4 | 12.9 | 0.00 | 0.00 | 0.00 | 80 | 1017.1 |
| 20260905174037 | 25 | 173 | 6.4 | 12.9 | 0.00 | 0.00 | 0.00 | 79 | 1017.3 |
| 20260905173531 | 25 | 156 | 1.6 | 12.9 | 0.00 | 0.00 | 0.00 | 79 | 1017.3 |
| 20260905173054 | 25 | 153 | 8.0 | 12.9 | 0.00 | 0.00 | 0.00 | 80 | 1017.4 |
| 20260905172532 | 25 | 191 | 6.4 | 12.9 | 0.00 | 0.00 | 0.00 | 80 | 1017.5 |
| 20260905172033 | 24 | 160 | 3.2 | 12.9 | 0.00 | 0.00 | 0.00 | 82 | 1017.4 |
| 20260905171550 | 24 | 131 | 3.2 | 12.9 | 0.00 | 0.00 | 0.00 | 82 | 1017.5 |
| 20260905171033 | 24 | 103 | 1.6 | 9.7 | 0.00 | 0.00 | 0.00 | 83 | 1017.4 |
| 20260905170533 | 23 | 117 | 3.2 | 12.9 | 0.00 | 0.00 | 0.00 | 84 | 1017.5 |
| 20260905170047 | 23 | 0 | 0.0 | 12.9 | 0.00 | 0.00 | 0.00 | 85 | 1017.4 |
| 20260905165530 | 23 | 96 | 3.2 | 12.9 | 0.00 | 0.00 | 0.00 | 84 | 1017.5 |
| 20260905165032 | 23 | 58 | 1.6 | 9.7 | 0.00 | 0.00 | 0.00 | 85 | 1017.5 |
| 20260905164545 | 23 | 0 | 3.2 | 11.3 | 0.00 | 0.00 | 0.00 | 84 | 1017.7 |
| 20260905164031 | 23 | 118 | 3.2 | 12.9 | 0.00 | 0.00 | 0.00 | 86 | 1017.5 |
| 20260905163531 | 22 | 98 | 3.2 | 12.9 | 0.00 | 0.00 | 0.00 | 87 | 1017.5 |
| 20260905163050 | 22 | 86 | 4.8 | 12.9 | 0.00 | 0.00 | 0.00 | 86 | 1017.5 |